GW1748 Weather Reports


time (UTC)temp
C
wind
direction
speed
KPH
gust
KPH
rain 1hr
cm
rain 24hr
cm
rain mn
cm
humidity
%
barometer
mb
20260504201542 22 259 4.8 29.0 0.00 0.00 0.00 37 1004.9
20260504200042 22 217 12.9 32.2 0.00 0.00 0.00 35 1005.1
20260504194546 21 238 8.0 24.1 0.00 0.00 0.00 37 1004.9
20260504193036 20 186 6.4 24.1 0.00 0.00 0.00 38 1004.9
20260504191544 21 246 9.7 20.9 0.00 0.00 0.00 37 1005.0
20260504190050 21 340 8.0 32.2 0.00 0.00 0.00 37 1005.2
20260504184558 21 202 12.9 25.7 0.00 0.00 0.00 38 1005.2
20260504183040 21 209 6.4 20.9 0.00 0.00 0.00 38 1005.2
20260504181535 20 233 4.8 24.1 0.00 0.00 0.00 37 1005.3
20260504180045 21 234 8.0 30.6 0.00 0.00 0.00 36 1005.3
20260504174542 22 261 6.4 24.1 0.00 0.00 0.00 34 1005.2
20260504173041 21 236 8.0 29.0 0.00 0.00 0.00 37 1005.5
20260504171546 20 244 12.9 33.8 0.00 0.00 0.00 37 1005.6
20260504081540 3 0 0.0 0.0 0.00 0.05 0.00 89 1008.7
20260504044543 0 0 0.0 0.0 0.00 0.05 0.00 91 1008.8
20260504043040 0 0 0.0 0.0 0.00 0.05 0.00 91 1008.8
20260504041542 0 0 0.0 0.0 0.00 0.05 0.00 91 1008.7
20260504040038 0 0 0.0 1.6 0.00 0.05 0.00 90 1008.7
20260504034600 0 0 0.0 0.0 0.00 0.05 0.05 90 1008.7
20260504033042 0 0 0.0 0.0 0.00 0.05 0.05 89 1008.7
20260504031542 0 0 0.0 0.0 0.00 0.05 0.05 89 1008.6
20260504030043 0 0 0.0 0.0 0.00 0.05 0.05 88 1008.5
20260504024536 1 0 0.0 0.0 0.00 0.15 0.05 87 1008.6
20260504023036 1 0 0.0 0.0 0.00 0.15 0.05 87 1008.6
20260504021543 1 0 0.0 0.0 0.00 0.15 0.05 85 1008.5
20260504020041 1 0 0.0 0.0 0.00 0.15 0.05 84 1008.5
20260504014553 2 0 0.0 0.0 0.00 0.15 0.05 82 1008.5
20260504013042 2 0 0.0 0.0 0.00 0.15 0.05 81 1008.4
20260504011542 3 0 0.0 0.0 0.00 0.15 0.05 79 1008.2
20260504010045 3 0 0.0 0.0 0.00 0.15 0.05 77 1008.1
20260504004543 5 0 0.0 0.0 0.00 0.15 0.05 74 1007.9
20260504003049 5 0 0.0 0.0 0.00 0.15 0.05 70 1007.8
20260504001542 6 0 0.0 0.0 0.00 0.15 0.05 70 1007.6
20260504000041 7 0 0.0 0.0 0.00 0.15 0.05 61 1007.5
20260503234548 8 0 0.0 1.6 0.00 0.18 0.05 55 1007.3
20260503233044 9 0 0.0 8.0 0.00 0.18 0.05 51 1007.1
20260503231542 9 250 3.2 12.9 0.00 0.18 0.05 50 1007.1
20260503230043 10 288 6.4 24.1 0.00 0.18 0.05 49 1006.9
20260503224540 10 251 9.7 20.9 0.00 0.18 0.05 48 1006.7
20260503223046 10 323 4.8 19.3 0.00 0.18 0.05 49 1006.6
20260503221544 10 328 1.6 17.7 0.00 0.18 0.05 47 1006.6
20260503220049 10 355 8.0 25.7 0.00 0.18 0.05 44 1006.5
20260503214540 10 249 8.0 22.5 0.00 0.51 0.05 44 1006.2
20260503213042 10 331 6.4 24.1 0.00 0.51 0.05 45 1006.0
20260503211547 11 346 9.7 24.1 0.00 0.51 0.05 43 1005.9
20260503210049 11 336 11.3 27.4 0.00 0.51 0.05 45 1005.9
20260503204542 10 346 9.7 25.7 0.00 0.53 0.05 46 1005.6
20260503203041 11 290 9.7 22.5 0.00 0.53 0.05 43 1005.5